AirNav   Air Wisconsin Up To $57,000 Bonus
 
 955 users online  

0CD6 Exempla Good Samaritan Heliport
Lafayette, Colorado, USA

GOING TO LAFAYETTE?


FAA INFORMATION EFFECTIVE 08 SEPTEMBER 2022

Location

FAA Identifier: 0CD6
Lat/Long: 39-58-15.0400N 105-05-14.6500W
39-58.250667N 105-05.244167W
39.9708444,-105.0874028
(estimated)
Elevation: 5204 ft. / 1586 m
From city: 2 miles S of LAFAYETTE, CO
Time zone: UTC -6 (UTC -7 during Standard Time)
Zip code: 80026

Heliport Operations

Heliport use: Private use. Permission required prior to landing
Activation date: 05/2006
Control tower: no
ARTCC: DENVER CENTER
FSS: DENVER FLIGHT SERVICE STATION
Attendance: UNATNDD
Segmented circle: no
Lights: PHONE-REQ

Heliport Communications

WX AWOS-3 at EIK (3 nm NE): 133.825 (303-604-4339)
WX AWOS-3 at BJC (4 nm S): PHONE 720-887-8067
WX AWOS-3 at BDU (8 nm NW): 118.825 (303-541-9540)
WX AWOS-3 at LMO (12 nm N): 120.0 (303-684-7545)

Nearby radio navigation aids

VOR radial/distance  VOR name  Freq  Var
BJCr023/4.2JEFFCO VOR/DME115.4011E
DVVr274/21.8MILE HIGH VORTAC114.7008E
DENr288/21.8DENVER VOR/DME117.9008E
FQFr297/27.3FALCON VORTAC116.3011E

Heliport Services

Runway Information

Helipad H1

Dimensions: 40 x 40 ft. / 12 x 12 m
Surface: concrete
Runway edge lights: PERI
Latitude: 39-58.250667N
Longitude: 105-05.244167W
Elevation: 5204.0 ft.
Traffic pattern: leftleft

Heliport Ownership and Management from official FAA records

Ownership: Privately-owned
Owner: EXEMPLA HEALTH CARE
200 EXEMPLA CIRCLE
LAFAYETTE, CO 80026
Phone 303-689-4000
Manager: MICHAEL GERKEN
200 EXEMPLA CIRCLE
LAFAYETTE, CO 80026
Phone 303-689-6060

Additional Remarks

MEDICAL USE.
FOR PERIMETER LGTS, CALL 303-689-6060.
FOR CD CTC DENVER APCH AT 303-342-1916.

Instrument Procedures

There are no published instrument procedures at 0CD6.

Some nearby airports with instrument procedures:

KEIK - Erie Municipal Airport (3 nm NE)
KBJC - Rocky Mountain Metro Airport (4 nm S)
KLMO - Vance Brand Airport (12 nm N)
KDEN - Denver International Airport (20 nm E)
KBKF - Buckley Space Force Base (22 nm SE)
 
Loc | Ops | Rwys | IFR | FBO | Links
Com | Nav | Svcs | Stats | Notes

AirBoss

 
Area around 0CD6 (Exempla Good Samaritan Heliport)
 
Road maps at: MapQuest Bing Google
 
Aerial photo
No photo
 
Sectional chart

 
Airport distance calculator
Flying to Exempla Good Samaritan Heliport? Find the distance to fly.

From to 0CD6

Sunrise and sunset
Times for 24-Sep-2022
 Local
(UTC-6)
 Zulu
(UTC)
Morning civil twilight06:2412:24
Sunrise06:5112:51
Sunset18:5400:54
Evening civil twilight19:2101:21

Current date and time
Zulu (UTC)  24-Sep-2022 23:05:01
Local (UTC-6)  24-Sep-2022 17:05:01
 
METAR
KEIK 
3nm NE 
242255Z AUTO 06006KT 10SM CLR 27/M05 A3016 RMK AO2 T02731048 PWINO
KBJC 
4nm SW 
242245Z 10004KT 10SM SKC 27/M03 A3020
K1V5 
8nm NW 
AWOS 118.825 303-541-9540
No observation available
KBDU 
8nm NW 
242255Z AUTO 07003KT 10SM CLR 26/M01 A3018 RMK AO2
KLMO 
12nm N 
242235Z AUTO 08006KT 10SM CLR 28/M02 A3018 RMK AO2 T02811025
TAF
KBJC 
4nm SW 
241740Z 2418/2518 VRB03KT P6SM SKC FM241900 07007KT P6SM SKC FM250500 35005KT P6SM SKC
NOTAMs
Click for the latest NOTAMs
NOTAMs are issued by the DoD/FAA and will open in a separate window not controlled by AirNav.

 

 
 

Would you like to see your business listed on this page?

 If your business provides an interesting product or service to pilots, flight crews, aircraft, or users of the Exempla Good Samaritan Heliport, you should consider listing it here.  To start the listing process, click on the button below
 
Add a business
 

Other Pages about Exempla Good Samaritan Heliport

Update a link
 
Copyright © AirNav, LLC. All rights reserved. Privacy Policy  Contact